Stündliche Wetter Cayo Guillermo

Heute, 27 Oktober, Dienstag

Zeit Temperatur Niederschläge Wind Luftdruck Luftfeuchtigkeit
00:00 +27°C° 0 mm 7 m/S 761 mmHg 91%
01:00 +27°C° 0 mm 8 m/S 761 mmHg 91%
02:00 +27°C° 0 mm 7 m/S 760 mmHg 92%
03:00 +27°C° 0 mm 7 m/S 760 mmHg 93%
04:00 +27°C° 0 mm 7 m/S 760 mmHg 93%
05:00 +27°C° 0 mm 7 m/S 760 mmHg 93%
06:00 +27°C° 0 mm 7 m/S 761 mmHg 93%
07:00 +28°C° 0 mm 7 m/S 761 mmHg 93%
08:00 +29°C° 0 mm 7 m/S 761 mmHg 86%
09:00 +30°C° 0 mm 6 m/S 762 mmHg 79%
10:00 +33°C° 0 mm 6 m/S 762 mmHg 72%
11:00 +33°C° 0.1 mm 7 m/S 761 mmHg 71%
12:00 +34°C° 0.1 mm 7 m/S 761 mmHg 69%
13:00 +34°C° 0.1 mm 8 m/S 760 mmHg 67%
14:00 +33°C° 0 mm 8 m/S 760 mmHg 69%
15:00 +33°C° 0 mm 7 m/S 760 mmHg 71%
16:00 +32°C° 0 mm 7 m/S 760 mmHg 73%
17:00 +30°C° 0 mm 7 m/S 760 mmHg 77%
18:00 +29°C° 0 mm 7 m/S 760 mmHg 81%
19:00 +28°C° 0 mm 7 m/S 760 mmHg 85%
20:00 +28°C° 0 mm 7 m/S 761 mmHg 86%
21:00 +28°C° 0 mm 7 m/S 761 mmHg 87%
22:00 +28°C° 0 mm 7 m/S 761 mmHg 88%
23:00 +28°C° 0 mm 7 m/S 761 mmHg 88%

Morgen, 28 Oktober, Mittwoch

Zeit Temperatur Niederschläge Wind Luftdruck Luftfeuchtigkeit
00:00 +28°C° 0 mm 7 m/S 761 mmHg 89%
01:00 +28°C° 0 mm 7 m/S 760 mmHg 89%
02:00 +28°C° 0.1 mm 7 m/S 760 mmHg 89%
03:00 +28°C° 0.1 mm 7 m/S 760 mmHg 89%
04:00 +28°C° 0.1 mm 8 m/S 760 mmHg 88%
05:00 +28°C° 0 mm 8 m/S 760 mmHg 88%
06:00 +28°C° 0 mm 8 m/S 760 mmHg 88%
07:00 +28°C° 0 mm 9 m/S 760 mmHg 88%
08:00 +29°C° 0.1 mm 9 m/S 760 mmHg 82%
09:00 +31°C° 0.1 mm 9 m/S 761 mmHg 76%
10:00 +32°C° 0.1 mm 9 m/S 761 mmHg 70%
11:00 +33°C° 0 mm 9 m/S 760 mmHg 69%
12:00 +33°C° 0 mm 8 m/S 760 mmHg 68%
13:00 +33°C° 0 mm 8 m/S 759 mmHg 67%
14:00 +33°C° 0.1 mm 8 m/S 759 mmHg 69%
15:00 +32°C° 0.1 mm 8 m/S 758 mmHg 71%
16:00 +32°C° 0.1 mm 8 m/S 758 mmHg 73%
17:00 +30°C° 0 mm 7 m/S 759 mmHg 77%
18:00 +29°C° 0 mm 7 m/S 759 mmHg 80%
19:00 +28°C° 0 mm 7 m/S 759 mmHg 84%
20:00 +28°C° 0 mm 7 m/S 759 mmHg 85%
21:00 +28°C° 0 mm 8 m/S 759 mmHg 86%
22:00 +28°C° 0 mm 8 m/S 759 mmHg 87%
23:00 +28°C° 0.2 mm 8 m/S 759 mmHg 87%

übermorgen, 29 Oktober, Donnerstag

Zeit Temperatur Niederschläge Wind Luftdruck Luftfeuchtigkeit
00:00 +27°C° 0.2 mm 8 m/S 759 mmHg 88%
01:00 +27°C° 0.2 mm 8 m/S 759 mmHg 88%
02:00 +27°C° 0 mm 7 m/S 759 mmHg 89%
03:00 +27°C° 0 mm 7 m/S 759 mmHg 90%
04:00 +27°C° 0 mm 7 m/S 759 mmHg 90%
05:00 +27°C° 0 mm 7 m/S 759 mmHg 90%
06:00 +27°C° 0 mm 7 m/S 759 mmHg 89%
07:00 +27°C° 0 mm 7 m/S 759 mmHg 89%
08:00 +29°C° 0 mm 6 m/S 760 mmHg 83%
09:00 +30°C° 0 mm 6 m/S 760 mmHg 76%
10:00 +33°C° 0 mm 6 m/S 760 mmHg 70%
11:00 +33°C° 0 mm 6 m/S 759 mmHg 67%
12:00 +34°C° 0 mm 6 m/S 759 mmHg 65%
13:00 +34°C° 0 mm 6 m/S 758 mmHg 63%
14:00 +34°C° 0 mm 6 m/S 758 mmHg 65%
15:00 +33°C° 0 mm 6 m/S 758 mmHg 66%
16:00 +33°C° 0 mm 6 m/S 757 mmHg 68%
17:00 +30°C° 0 mm 6 m/S 758 mmHg 74%
18:00 +29°C° 0 mm 6 m/S 758 mmHg 79%
19:00 +28°C° 0 mm 7 m/S 759 mmHg 84%
20:00 +28°C° 0 mm 6 m/S 759 mmHg 86%
21:00 +27°C° 0 mm 6 m/S 759 mmHg 88%
22:00 +27°C° 0 mm 6 m/S 759 mmHg 90%
23:00 +27°C° 0 mm 5 m/S 759 mmHg 91%

30 Oktober, Freitag

Zeit Temperatur Niederschläge Wind Luftdruck Luftfeuchtigkeit
00:00 +27°C° 0 mm 5 m/S 759 mmHg 91%
01:00 +26°C° 0 mm 4 m/S 759 mmHg 92%
02:00 +26°C° 0 mm 4 m/S 759 mmHg 92%
03:00 +26°C° 0 mm 4 m/S 759 mmHg 92%
04:00 +25°C° 0 mm 3 m/S 759 mmHg 93%
05:00 +26°C° 0 mm 3 m/S 759 mmHg 93%
06:00 +26°C° 0 mm 3 m/S 759 mmHg 93%
07:00 +26°C° 0 mm 3 m/S 759 mmHg 92%
08:00 +27°C° 0 mm 2 m/S 759 mmHg 84%
09:00 +29°C° 0 mm 2 m/S 760 mmHg 76%
10:00 +31°C° 0 mm 2 m/S 760 mmHg 68%
11:00 +31°C° 0 mm 1 m/S 759 mmHg 65%
12:00 +32°C° 0 mm 1 m/S 759 mmHg 62%
13:00 +33°C° 0 mm 1 m/S 759 mmHg 59%
14:00 +32°C° 0 mm 2 m/S 758 mmHg 63%
15:00 +31°C° 0 mm 2 m/S 758 mmHg 67%
16:00 +30°C° 0 mm 3 m/S 758 mmHg 71%
17:00 +29°C° 0 mm 3 m/S 759 mmHg 75%
18:00 +28°C° 0 mm 4 m/S 759 mmHg 79%
19:00 +27°C° 0 mm 4 m/S 760 mmHg 82%
20:00 +27°C° 0 mm 4 m/S 760 mmHg 84%
21:00 +26°C° 0 mm 4 m/S 761 mmHg 87%
22:00 +26°C° 0 mm 3 m/S 761 mmHg 89%
23:00 +26°C° 0 mm 3 m/S 761 mmHg 89%

31 Oktober, Samstag

Zeit Temperatur Niederschläge Wind Luftdruck Luftfeuchtigkeit
00:00 +26°C° 0 mm 3 m/S 761 mmHg 90%
01:00 +26°C° 0 mm 3 m/S 761 mmHg 91%
02:00 +25°C° 0 mm 3 m/S 760 mmHg 91%
03:00 +25°C° 0 mm 3 m/S 760 mmHg 91%
04:00 +25°C° 0 mm 3 m/S 760 mmHg 91%
05:00 +25°C° 0 mm 3 m/S 760 mmHg 90%
06:00 +26°C° 0 mm 3 m/S 761 mmHg 90%
07:00 +26°C° 0 mm 3 m/S 761 mmHg 89%
08:00 +28°C° 0 mm 3 m/S 761 mmHg 83%
09:00 +29°C° 0 mm 3 m/S 762 mmHg 76%
10:00 +32°C° 0 mm 4 m/S 762 mmHg 69%
11:00 +32°C° 0 mm 4 m/S 761 mmHg 68%
12:00 +32°C° 0 mm 4 m/S 761 mmHg 66%
13:00 +32°C° 0 mm 4 m/S 761 mmHg 65%
14:00 +32°C° 0 mm 4 m/S 760 mmHg 68%
15:00 +30°C° 0 mm 5 m/S 760 mmHg 70%
16:00 +30°C° 0 mm 5 m/S 760 mmHg 73%
17:00 +29°C° 0 mm 5 m/S 760 mmHg 77%
18:00 +28°C° 0 mm 5 m/S 760 mmHg 82%
19:00 +27°C° 0 mm 5 m/S 761 mmHg 87%
20:00 +27°C° 0 mm 6 m/S 761 mmHg 87%
21:00 +27°C° 0 mm 6 m/S 761 mmHg 88%
22:00 +27°C° 0 mm 6 m/S 761 mmHg 88%
23:00 +27°C° 0.1 mm 6 m/S 761 mmHg 89%

1 November, Sonntag

Zeit Temperatur Niederschläge Wind Luftdruck Luftfeuchtigkeit
00:00 +27°C° 0.1 mm 6 m/S 761 mmHg 91%
01:00 +27°C° 0.1 mm 5 m/S 761 mmHg 92%
02:00 +27°C° 0.1 mm 5 m/S 761 mmHg 93%
03:00 +26°C° 0.1 mm 5 m/S 760 mmHg 93%
04:00 +26°C° 0.1 mm 5 m/S 760 mmHg 93%
05:00 +26°C° 0.1 mm 5 m/S 760 mmHg 93%
06:00 +27°C° 0.1 mm 5 m/S 761 mmHg 92%
07:00 +27°C° 0.1 mm 4 m/S 761 mmHg 92%
08:00 +28°C° 0 mm 4 m/S 761 mmHg 85%
09:00 +29°C° 0 mm 4 m/S 761 mmHg 79%
10:00 +30°C° 0 mm 4 m/S 761 mmHg 72%
11:00 +32°C° 0 mm 4 m/S 761 mmHg 71%
12:00 +32°C° 0 mm 4 m/S 760 mmHg 70%
13:00 +33°C° 0 mm 4 m/S 760 mmHg 68%
14:00 +32°C° 0 mm 4 m/S 759 mmHg 72%
15:00 +32°C° 0 mm 5 m/S 759 mmHg 75%
16:00 +30°C° 0 mm 5 m/S 759 mmHg 78%
17:00 +29°C° 0.1 mm 5 m/S 759 mmHg 82%
18:00 +28°C° 0.1 mm 5 m/S 759 mmHg 86%
19:00 +27°C° 0.1 mm 6 m/S 760 mmHg 90%
20:00 +27°C° 0.5 mm 5 m/S 760 mmHg 90%
21:00 +27°C° 0.5 mm 5 m/S 760 mmHg 90%
22:00 +27°C° 0.5 mm 5 m/S 760 mmHg 90%
23:00 +27°C° 1 mm 5 m/S 760 mmHg 91%
Mehr zeigen